OEFEL LOGI-LSZG

Flight info

Callsign OEFEL
Flight time 1h 52m
Altitude 8000
Route VATET DCT VERDA DCT NANIT DCT BERAS DCT GOVTU DCT MADEB DCT ELMUR DCT DOPIL DCT WIL
Aircraft DA42/L-SDFGRY/C

Departure

Time 2026-04-11 09:02
Airport Trieben Airfield (LOGI)

Arrival

Time 2026-04-11 10:54
Airport Grenchen Airfield (LSZG)
Time Latitude Longitude Altitude Speed Heading
2026-04-11 08:39 47.49149 14.49451 2362 ft 0 kts 299°
2026-04-11 08:58 47.49151 14.49445 2359 ft 5 kts 298°
2026-04-11 08:58 47.49171 14.49386 2364 ft 1 kts 297°
2026-04-11 08:58 47.49201 14.49361 2360 ft 13 kts 17°
2026-04-11 08:58 47.49290 14.49440 2363 ft 15 kts 30°
2026-04-11 08:59 47.49330 14.49474 2358 ft 2 kts 28°
2026-04-11 08:59 47.49356 14.49511 2352 ft 7 kts 100°
2026-04-11 08:59 47.49334 14.49587 2352 ft 10 kts 113°
2026-04-11 08:59 47.49298 14.49712 2353 ft 16 kts 115°
2026-04-11 09:00 47.49250 14.49870 2356 ft 16 kts 112°
2026-04-11 09:00 47.49213 14.50014 2356 ft 15 kts 114°
2026-04-11 09:00 47.49203 14.50017 2358 ft 4 kts 294°
2026-04-11 09:00 47.49209 14.49998 2354 ft 0 kts 290°
2026-04-11 09:01 47.49216 14.49974 2355 ft 15 kts 295°
2026-04-11 09:01 47.49350 14.49527 2355 ft 75 kts 293°
2026-04-11 09:01 47.49577 14.48711 2542 ft 89 kts 289°
2026-04-11 09:01 47.49764 14.47779 2838 ft 94 kts 280°
2026-04-11 09:02 47.49973 14.46754 3029 ft 111 kts 290°
2026-04-11 09:02 47.50228 14.45710 3400 ft 109 kts 289°
2026-04-11 09:02 47.50483 14.44650 3717 ft 109 kts 289°
2026-04-11 09:02 47.50736 14.43586 4016 ft 110 kts 289°
2026-04-11 09:03 47.50990 14.42513 4317 ft 110 kts 289°
2026-04-11 09:03 47.51244 14.41434 4638 ft 111 kts 289°
2026-04-11 09:03 47.51499 14.40348 5006 ft 111 kts 289°
2026-04-11 09:03 47.51753 14.39266 5387 ft 111 kts 289°
2026-04-11 09:04 47.52003 14.38200 5766 ft 108 kts 289°
2026-04-11 09:04 47.52247 14.37152 6117 ft 107 kts 289°
2026-04-11 09:04 47.52491 14.36112 6478 ft 107 kts 289°
2026-04-11 09:04 47.52651 14.35427 6703 ft 106 kts 289°
2026-04-11 09:05 47.52888 14.34410 7039 ft 104 kts 290°
2026-04-11 09:05 47.53124 14.33401 7349 ft 104 kts 290°
2026-04-11 09:05 47.53358 14.32394 7694 ft 103 kts 290°
2026-04-11 09:05 47.53663 14.31089 8166 ft 100 kts 290°
2026-04-11 09:06 47.53816 14.30441 8394 ft 99 kts 291°
2026-04-11 09:06 47.54038 14.29487 8679 ft 97 kts 289°
2026-04-11 09:06 47.54250 14.28557 9034 ft 94 kts 291°
2026-04-11 09:06 47.54459 14.27655 9441 ft 94 kts 292°
2026-04-11 09:07 47.54670 14.26756 9840 ft 92 kts 292°
2026-04-11 09:07 47.54881 14.25871 10197 ft 91 kts 293°
2026-04-11 09:07 47.55095 14.24987 10540 ft 91 kts 294°
2026-04-11 09:07 47.55313 14.24098 10872 ft 92 kts 294°
2026-04-11 09:08 47.55539 14.23180 11069 ft 103 kts 294°
2026-04-11 09:08 47.55824 14.22086 11079 ft 123 kts 295°
2026-04-11 09:08 47.56163 14.20854 11084 ft 135 kts 295°
2026-04-11 09:08 47.56538 14.19535 11083 ft 142 kts 296°
2026-04-11 09:09 47.56936 14.18174 11079 ft 145 kts 296°
2026-04-11 09:09 47.57342 14.16800 11078 ft 147 kts 296°
2026-04-11 09:09 47.57764 14.15406 11073 ft 149 kts 296°
2026-04-11 09:09 47.58183 14.14008 11084 ft 149 kts 296°
2026-04-11 09:10 47.58595 14.12608 11063 ft 149 kts 296°
2026-04-11 09:10 47.59030 14.11180 11069 ft 155 kts 296°
2026-04-11 09:10 47.59302 14.09642 11066 ft 157 kts 275°
2026-04-11 09:10 47.59274 14.08024 11063 ft 153 kts 277°
2026-04-11 09:11 47.59413 14.06490 11064 ft 151 kts 286°
2026-04-11 09:11 47.59708 14.05010 11079 ft 150 kts 291°
2026-04-11 09:11 47.59964 14.03494 11072 ft 155 kts 282°
2026-04-11 09:11 47.59964 14.01901 11056 ft 156 kts 269°
2026-04-11 09:12 47.59810 14.00325 11071 ft 155 kts 269°
2026-04-11 09:12 47.59665 13.98721 11072 ft 158 kts 269°
2026-04-11 09:12 47.59515 13.97104 11060 ft 156 kts 269°
2026-04-11 09:12 47.59366 13.95519 11065 ft 155 kts 269°
2026-04-11 09:13 47.59218 13.93939 11061 ft 157 kts 269°
2026-04-11 09:13 47.59065 13.92319 11059 ft 159 kts 267°
2026-04-11 09:13 47.58909 13.90722 11059 ft 157 kts 267°
2026-04-11 09:13 47.58756 13.89126 11047 ft 156 kts 268°
2026-04-11 09:14 47.58608 13.87562 11053 ft 150 kts 268°
2026-04-11 09:14 47.58467 13.86033 11072 ft 151 kts 268°
2026-04-11 09:14 47.58325 13.84483 11067 ft 155 kts 268°
2026-04-11 09:14 47.58169 13.82890 11062 ft 157 kts 268°
2026-04-11 09:15 47.58015 13.81299 11065 ft 156 kts 266°
2026-04-11 09:15 47.57854 13.79678 11054 ft 158 kts 267°
2026-04-11 09:15 47.57704 13.78083 11075 ft 158 kts 267°
2026-04-11 09:15 47.57548 13.76455 11054 ft 158 kts 267°
2026-04-11 09:16 47.57396 13.74855 11051 ft 155 kts 267°
2026-04-11 09:16 47.57240 13.73281 11069 ft 159 kts 268°
2026-04-11 09:16 47.57088 13.71626 11051 ft 163 kts 268°
2026-04-11 09:16 47.56936 13.69971 11052 ft 161 kts 268°
2026-04-11 09:17 47.56774 13.68338 11024 ft 157 kts 267°
2026-04-11 09:17 47.56612 13.66787 11057 ft 154 kts 266°
2026-04-11 09:17 47.56464 13.65196 11050 ft 157 kts 268°
2026-04-11 09:17 47.56327 13.63656 11069 ft 146 kts 268°
2026-04-11 09:18 47.56173 13.62136 11072 ft 147 kts 266°
2026-04-11 09:18 47.56011 13.60603 11049 ft 154 kts 268°
2026-04-11 09:18 47.55866 13.59020 11051 ft 156 kts 268°
2026-04-11 09:18 47.55717 13.57427 11058 ft 157 kts 268°
2026-04-11 09:19 47.55558 13.55803 11051 ft 161 kts 267°
2026-04-11 09:19 47.55398 13.54183 11060 ft 161 kts 267°
2026-04-11 09:19 47.55233 13.52526 11055 ft 164 kts 267°
2026-04-11 09:19 47.55077 13.50856 11045 ft 163 kts 267°
2026-04-11 09:20 47.54909 13.49205 11047 ft 161 kts 267°
2026-04-11 09:20 47.54741 13.47574 11049 ft 160 kts 267°
2026-04-11 09:20 47.54578 13.45942 11051 ft 161 kts 267°
2026-04-11 09:20 47.54418 13.44294 11046 ft 161 kts 267°
2026-04-11 09:21 47.54259 13.42649 11051 ft 161 kts 267°
2026-04-11 09:21 47.54098 13.41022 11039 ft 161 kts 268°
2026-04-11 09:21 47.53933 13.39393 11047 ft 158 kts 267°
2026-04-11 09:21 47.53773 13.37773 11053 ft 161 kts 268°
2026-04-11 09:22 47.53614 13.36125 11050 ft 164 kts 267°
2026-04-11 09:22 47.53450 13.34449 11047 ft 167 kts 266°
2026-04-11 09:22 47.53259 13.32775 11043 ft 166 kts 264°
2026-04-11 09:22 47.53029 13.31114 11026 ft 162 kts 264°
2026-04-11 09:23 47.52800 13.29493 11038 ft 161 kts 264°
2026-04-11 09:23 47.52579 13.27874 11088 ft 159 kts 265°
2026-04-11 09:23 47.52365 13.26335 11382 ft 144 kts 265°
2026-04-11 09:23 47.52171 13.24991 11869 ft 128 kts 266°
2026-04-11 09:24 47.52003 13.23775 12350 ft 112 kts 268°
2026-04-11 09:24 47.51860 13.22755 12939 ft 90 kts 270°
2026-04-11 09:24 47.51731 13.21758 13051 ft 110 kts 270°
2026-04-11 09:24 47.51577 13.20543 13053 ft 127 kts 268°
2026-04-11 09:25 47.51395 13.19207 13052 ft 140 kts 267°
2026-04-11 09:25 47.51181 13.17731 13049 ft 152 kts 266°
2026-04-11 09:25 47.50963 13.16165 13050 ft 157 kts 266°
2026-04-11 09:25 47.50738 13.14552 13052 ft 160 kts 266°
2026-04-11 09:26 47.50512 13.12936 13041 ft 162 kts 266°
2026-04-11 09:26 47.50283 13.11302 13058 ft 163 kts 266°
2026-04-11 09:26 47.50056 13.09651 13043 ft 163 kts 265°
2026-04-11 09:26 47.49819 13.08038 13056 ft 157 kts 265°
2026-04-11 09:27 47.49588 13.06450 13084 ft 158 kts 266°
2026-04-11 09:27 47.49371 13.04847 13041 ft 158 kts 266°
2026-04-11 09:27 47.49151 13.03233 13050 ft 162 kts 266°
2026-04-11 09:27 47.48927 13.01568 13040 ft 168 kts 265°
2026-04-11 09:28 47.48686 12.99875 13038 ft 168 kts 265°
2026-04-11 09:28 47.48447 12.98189 13036 ft 166 kts 265°
2026-04-11 09:28 47.48216 12.96539 13046 ft 168 kts 265°
2026-04-11 09:28 47.47971 12.94839 13053 ft 171 kts 264°
2026-04-11 09:29 47.47722 12.93094 13040 ft 170 kts 265°
2026-04-11 09:29 47.47479 12.91417 13035 ft 169 kts 265°
2026-04-11 09:29 47.47244 12.89718 13038 ft 169 kts 265°
2026-04-11 09:29 47.47001 12.88003 13039 ft 171 kts 265°
2026-04-11 09:30 47.46763 12.86273 13037 ft 172 kts 265°
2026-04-11 09:30 47.46516 12.84540 13037 ft 172 kts 264°
2026-04-11 09:30 47.46270 12.82816 13039 ft 171 kts 265°
2026-04-11 09:30 47.46027 12.81097 13031 ft 171 kts 265°
2026-04-11 09:31 47.45772 12.79383 13038 ft 171 kts 264°
2026-04-11 09:31 47.45525 12.77674 13030 ft 168 kts 265°
2026-04-11 09:31 47.45280 12.75993 13030 ft 167 kts 265°
2026-04-11 09:31 47.45052 12.74356 13039 ft 160 kts 266°
2026-04-11 09:32 47.44829 12.72724 13024 ft 157 kts 265°
2026-04-11 09:32 47.44607 12.71174 13044 ft 157 kts 265°
2026-04-11 09:32 47.44377 12.69582 13043 ft 160 kts 265°
2026-04-11 09:32 47.44141 12.67952 13044 ft 163 kts 265°
2026-04-11 09:33 47.43906 12.66310 13043 ft 166 kts 265°
2026-04-11 09:33 47.43662 12.64620 13039 ft 168 kts 264°
2026-04-11 09:33 47.43414 12.62917 13029 ft 170 kts 265°
2026-04-11 09:33 47.43175 12.61196 13042 ft 172 kts 265°
2026-04-11 09:34 47.42923 12.59483 13028 ft 172 kts 264°
2026-04-11 09:34 47.42665 12.57739 13020 ft 172 kts 264°
2026-04-11 09:34 47.42428 12.56071 13034 ft 162 kts 264°
2026-04-11 09:34 47.42189 12.54452 13038 ft 161 kts 265°
2026-04-11 09:35 47.41958 12.52852 13033 ft 160 kts 265°
2026-04-11 09:35 47.41723 12.51216 13023 ft 166 kts 264°
2026-04-11 09:35 47.41482 12.49566 13038 ft 165 kts 264°
2026-04-11 09:35 47.41236 12.47911 13040 ft 166 kts 265°
2026-04-11 09:36 47.40998 12.46238 13040 ft 166 kts 265°
2026-04-11 09:36 47.40757 12.44561 13044 ft 167 kts 265°
2026-04-11 09:36 47.40509 12.42865 13038 ft 169 kts 264°
2026-04-11 09:36 47.40257 12.41161 13032 ft 169 kts 264°
2026-04-11 09:37 47.40008 12.39479 13022 ft 165 kts 264°
2026-04-11 09:37 47.39770 12.37862 13033 ft 158 kts 265°
2026-04-11 09:37 47.39529 12.36287 13045 ft 154 kts 264°
2026-04-11 09:37 47.39313 12.34761 13049 ft 151 kts 267°
2026-04-11 09:38 47.39222 12.33171 13042 ft 159 kts 272°
2026-04-11 09:38 47.39133 12.31521 13042 ft 163 kts 271°
2026-04-11 09:38 47.39037 12.29842 13039 ft 165 kts 271°
2026-04-11 09:38 47.38942 12.28166 13032 ft 163 kts 271°
2026-04-11 09:39 47.38845 12.26514 13033 ft 164 kts 271°
2026-04-11 09:39 47.38751 12.24804 13037 ft 168 kts 271°
2026-04-11 09:39 47.38654 12.23081 13032 ft 169 kts 271°
2026-04-11 09:39 47.38554 12.21361 13034 ft 167 kts 271°
2026-04-11 09:40 47.38457 12.19655 13036 ft 167 kts 271°
2026-04-11 09:40 47.38358 12.17965 13032 ft 164 kts 271°
2026-04-11 09:40 47.38265 12.16310 13039 ft 165 kts 271°
2026-04-11 09:40 47.38169 12.14616 13043 ft 166 kts 271°
2026-04-11 09:41 47.38068 12.12908 13021 ft 167 kts 270°
2026-04-11 09:41 47.37969 12.11240 13032 ft 161 kts 271°
2026-04-11 09:41 47.37869 12.09588 13040 ft 163 kts 271°
2026-04-11 09:41 47.37778 12.07918 13043 ft 163 kts 271°
2026-04-11 09:42 47.37685 12.06233 13040 ft 166 kts 271°
2026-04-11 09:42 47.37586 12.04546 13027 ft 167 kts 271°
2026-04-11 09:42 47.37483 12.02816 13036 ft 168 kts 271°
2026-04-11 09:43 47.37276 11.99349 13035 ft 170 kts 271°
2026-04-11 09:43 47.37179 11.97627 13034 ft 170 kts 271°
2026-04-11 09:43 47.37075 11.95865 13034 ft 170 kts 271°
2026-04-11 09:43 47.36982 11.94156 13051 ft 170 kts 272°
2026-04-11 09:44 47.36868 11.92381 13034 ft 174 kts 270°
2026-04-11 09:44 47.36754 11.90600 13034 ft 175 kts 270°
2026-04-11 09:44 47.36647 11.88815 13031 ft 174 kts 271°
2026-04-11 09:44 47.36545 11.87038 13030 ft 172 kts 271°
2026-04-11 09:45 47.36441 11.85293 13032 ft 171 kts 271°
2026-04-11 09:45 47.36339 11.83556 13032 ft 167 kts 270°
2026-04-11 09:45 47.36224 11.81871 13057 ft 163 kts 268°
2026-04-11 09:45 47.36117 11.80196 13046 ft 169 kts 271°
2026-04-11 09:46 47.36032 11.78439 13043 ft 172 kts 271°
2026-04-11 09:46 47.35938 11.76677 13041 ft 172 kts 274°
2026-04-11 09:46 47.35907 11.74915 13043 ft 172 kts 274°
2026-04-11 09:46 47.35877 11.73166 13040 ft 172 kts 274°
2026-04-11 09:47 47.35845 11.71408 13035 ft 170 kts 274°
2026-04-11 09:47 47.35815 11.69674 13040 ft 169 kts 274°
2026-04-11 09:47 47.35786 11.67961 13036 ft 168 kts 274°
2026-04-11 09:47 47.35758 11.66219 13045 ft 170 kts 274°
2026-04-11 09:48 47.35726 11.64476 13035 ft 166 kts 274°
2026-04-11 09:48 47.35692 11.62824 13045 ft 160 kts 273°
2026-04-11 09:48 47.35663 11.61211 13039 ft 153 kts 274°
2026-04-11 09:48 47.35638 11.59636 13047 ft 159 kts 274°
2026-04-11 09:49 47.35628 11.58022 13057 ft 154 kts 275°
2026-04-11 09:49 47.35588 11.56422 13052 ft 160 kts 274°
2026-04-11 09:49 47.35549 11.54747 13047 ft 164 kts 274°
2026-04-11 09:49 47.35520 11.53077 13052 ft 165 kts 274°
2026-04-11 09:50 47.35490 11.51365 13052 ft 166 kts 274°
2026-04-11 09:50 47.35459 11.49669 13047 ft 166 kts 274°
2026-04-11 09:50 47.35428 11.47953 13052 ft 167 kts 274°
2026-04-11 09:50 47.35396 11.46251 13051 ft 168 kts 274°
2026-04-11 09:51 47.35363 11.44515 13055 ft 168 kts 274°
2026-04-11 09:51 47.35341 11.43368 13051 ft 168 kts 274°
2026-04-11 09:51 47.35299 11.41091 13056 ft 167 kts 273°
2026-04-11 09:51 47.35274 11.39945 13055 ft 169 kts 272°
2026-04-11 09:52 47.35229 11.37635 13037 ft 167 kts 274°
2026-04-11 09:52 47.35207 11.36501 13064 ft 167 kts 273°
2026-04-11 09:52 47.35172 11.34763 13036 ft 171 kts 274°
2026-04-11 09:52 47.35136 11.33010 13053 ft 169 kts 274°
2026-04-11 09:53 47.35097 11.31288 13054 ft 168 kts 274°
2026-04-11 09:53 47.35068 11.29587 13051 ft 165 kts 274°
2026-04-11 09:53 47.35033 11.27887 13062 ft 166 kts 274°
2026-04-11 09:53 47.34989 11.26155 13048 ft 169 kts 273°
2026-04-11 09:54 47.34949 11.24454 13045 ft 164 kts 274°
2026-04-11 09:54 47.34923 11.22736 13034 ft 168 kts 274°
2026-04-11 09:54 47.34894 11.20988 13031 ft 170 kts 273°
2026-04-11 09:54 47.34856 11.19268 13025 ft 168 kts 273°
2026-04-11 09:55 47.34816 11.17551 13007 ft 166 kts 274°
2026-04-11 09:55 47.34775 11.15850 13000 ft 164 kts 274°
2026-04-11 09:55 47.34712 11.14196 13023 ft 163 kts 273°
2026-04-11 09:55 47.34695 11.12504 13017 ft 166 kts 274°
2026-04-11 09:56 47.34670 11.10810 13021 ft 164 kts 274°
2026-04-11 09:56 47.34634 11.09133 13020 ft 162 kts 274°
2026-04-11 09:56 47.34594 11.07492 13014 ft 161 kts 272°
2026-04-11 09:56 47.34556 11.05846 13024 ft 163 kts 274°
2026-04-11 09:57 47.34514 11.04153 13022 ft 165 kts 273°
2026-04-11 09:57 47.34469 11.02467 13018 ft 164 kts 274°
2026-04-11 09:57 47.34431 11.00799 12997 ft 162 kts 274°
2026-04-11 09:57 47.34393 10.99133 12997 ft 162 kts 274°
2026-04-11 09:58 47.34343 10.97488 13071 ft 157 kts 272°
2026-04-11 09:58 47.34305 10.95893 13010 ft 155 kts 274°
2026-04-11 09:58 47.34276 10.94341 13017 ft 151 kts 275°
2026-04-11 09:58 47.34236 10.92753 12994 ft 157 kts 273°
2026-04-11 09:59 47.34182 10.91178 13016 ft 155 kts 273°
2026-04-11 09:59 47.34146 10.89555 12993 ft 160 kts 275°
2026-04-11 09:59 47.34113 10.87986 13036 ft 153 kts 273°
2026-04-11 09:59 47.34072 10.86333 12995 ft 162 kts 273°
2026-04-11 10:00 47.34028 10.84665 13014 ft 168 kts 273°
2026-04-11 10:00 47.33981 10.82929 12985 ft 171 kts 272°
2026-04-11 10:00 47.33936 10.81163 12980 ft 171 kts 274°
2026-04-11 10:00 47.33889 10.79418 12983 ft 170 kts 274°
2026-04-11 10:01 47.33837 10.77695 12972 ft 164 kts 272°
2026-04-11 10:01 47.33790 10.76073 12990 ft 155 kts 273°
2026-04-11 10:01 47.33753 10.74491 12993 ft 154 kts 273°
2026-04-11 10:01 47.33714 10.72871 12992 ft 163 kts 272°
2026-04-11 10:02 47.33669 10.71186 12994 ft 162 kts 273°
2026-04-11 10:02 47.33624 10.69524 12992 ft 162 kts 272°
2026-04-11 10:02 47.33560 10.67847 12993 ft 166 kts 273°
2026-04-11 10:02 47.33525 10.66135 12974 ft 166 kts 273°
2026-04-11 10:03 47.33482 10.64444 12969 ft 167 kts 273°
2026-04-11 10:03 47.33438 10.62727 12983 ft 170 kts 272°
2026-04-11 10:03 47.33389 10.60987 12983 ft 168 kts 273°
2026-04-11 10:03 47.33342 10.59265 12987 ft 168 kts 272°
2026-04-11 10:04 47.33290 10.57519 12978 ft 171 kts 272°
2026-04-11 10:04 47.33235 10.55761 12985 ft 173 kts 272°
2026-04-11 10:04 47.33183 10.53974 12983 ft 175 kts 272°
2026-04-11 10:04 47.33132 10.52188 12985 ft 174 kts 273°
2026-04-11 10:05 47.33079 10.50422 12973 ft 172 kts 273°
2026-04-11 10:05 47.33031 10.48666 12992 ft 172 kts 271°
2026-04-11 10:05 47.32977 10.46885 12972 ft 175 kts 273°
2026-04-11 10:05 47.32929 10.45115 12962 ft 171 kts 272°
2026-04-11 10:06 47.32876 10.43363 12975 ft 172 kts 272°
2026-04-11 10:06 47.32826 10.41586 12965 ft 174 kts 272°
2026-04-11 10:06 47.32761 10.39801 12970 ft 174 kts 271°
2026-04-11 10:06 47.32715 10.38021 12977 ft 174 kts 271°
2026-04-11 10:07 47.32667 10.36262 12975 ft 174 kts 271°
2026-04-11 10:07 47.32615 10.34475 12979 ft 175 kts 271°
2026-04-11 10:07 47.32557 10.32658 12979 ft 177 kts 271°
2026-04-11 10:07 47.32498 10.30868 12980 ft 176 kts 271°
2026-04-11 10:08 47.32461 10.29082 12973 ft 170 kts 277°
2026-04-11 10:08 47.32313 10.27348 12987 ft 174 kts 262°
2026-04-11 10:08 47.32063 10.25601 12972 ft 170 kts 264°
2026-04-11 10:08 47.31858 10.23873 12985 ft 173 kts 264°
2026-04-11 10:09 47.31657 10.22134 12989 ft 174 kts 264°
2026-04-11 10:09 47.31459 10.20362 12988 ft 175 kts 264°
2026-04-11 10:09 47.31248 10.18602 12981 ft 176 kts 264°
2026-04-11 10:09 47.31038 10.16825 12985 ft 174 kts 264°
2026-04-11 10:10 47.30834 10.15058 12980 ft 175 kts 265°
2026-04-11 10:10 47.30630 10.13293 12982 ft 175 kts 264°
2026-04-11 10:10 47.30427 10.11517 12973 ft 176 kts 265°
2026-04-11 10:10 47.30223 10.09772 12977 ft 175 kts 265°
2026-04-11 10:11 47.30020 10.08009 12973 ft 175 kts 265°
2026-04-11 10:11 47.29809 10.06255 12980 ft 173 kts 264°
2026-04-11 10:11 47.29602 10.04510 12979 ft 173 kts 265°
2026-04-11 10:11 47.29404 10.02757 12977 ft 173 kts 265°
2026-04-11 10:12 47.29201 10.01002 12988 ft 175 kts 265°
2026-04-11 10:12 47.28989 9.99226 12982 ft 177 kts 264°
2026-04-11 10:12 47.28779 9.97446 12986 ft 175 kts 265°
2026-04-11 10:12 47.28570 9.95680 12986 ft 175 kts 264°
2026-04-11 10:13 47.28357 9.93908 12992 ft 177 kts 264°
2026-04-11 10:13 47.28148 9.92117 12990 ft 177 kts 264°
2026-04-11 10:13 47.27937 9.90333 12988 ft 176 kts 264°
2026-04-11 10:13 47.27728 9.88569 12990 ft 174 kts 264°
2026-04-11 10:14 47.27519 9.86812 12992 ft 174 kts 264°
2026-04-11 10:14 47.27310 9.85059 12987 ft 174 kts 264°
2026-04-11 10:14 47.27103 9.83334 12996 ft 172 kts 264°
2026-04-11 10:14 47.26899 9.81597 13001 ft 174 kts 264°
2026-04-11 10:15 47.26686 9.79831 12996 ft 174 kts 264°
2026-04-11 10:15 47.26477 9.78107 12991 ft 169 kts 263°
2026-04-11 10:15 47.26276 9.76406 12996 ft 167 kts 264°
2026-04-11 10:15 47.26074 9.74705 13000 ft 169 kts 264°
2026-04-11 10:16 47.25870 9.73013 13002 ft 171 kts 264°
2026-04-11 10:16 47.25662 9.71288 13003 ft 172 kts 264°
2026-04-11 10:16 47.25452 9.69530 13001 ft 172 kts 264°
2026-04-11 10:16 47.25246 9.67809 13004 ft 172 kts 264°
2026-04-11 10:17 47.25034 9.66065 13005 ft 173 kts 264°
2026-04-11 10:17 47.24823 9.64326 13004 ft 173 kts 264°
2026-04-11 10:17 47.24611 9.62566 13004 ft 174 kts 264°
2026-04-11 10:17 47.24398 9.60812 13002 ft 174 kts 264°
2026-04-11 10:18 47.24194 9.59084 13006 ft 173 kts 263°
2026-04-11 10:18 47.23974 9.57330 13002 ft 172 kts 263°
2026-04-11 10:18 47.23760 9.55590 13002 ft 173 kts 264°
2026-04-11 10:18 47.23550 9.53862 13003 ft 173 kts 263°
2026-04-11 10:19 47.23341 9.52124 13005 ft 172 kts 263°
2026-04-11 10:19 47.23130 9.50392 13003 ft 171 kts 263°
2026-04-11 10:19 47.22919 9.48673 13003 ft 170 kts 263°
2026-04-11 10:19 47.22709 9.46957 13002 ft 170 kts 263°
2026-04-11 10:20 47.22502 9.45266 12999 ft 170 kts 263°
2026-04-11 10:20 47.22291 9.43553 12986 ft 168 kts 263°
2026-04-11 10:20 47.22084 9.41871 12990 ft 166 kts 263°
2026-04-11 10:20 47.21881 9.40203 12989 ft 165 kts 263°
2026-04-11 10:21 47.21681 9.38564 12986 ft 165 kts 263°
2026-04-11 10:21 47.21470 9.36888 12984 ft 166 kts 263°
2026-04-11 10:21 47.21258 9.35207 12981 ft 168 kts 263°
2026-04-11 10:21 47.21052 9.33532 12977 ft 169 kts 263°
2026-04-11 10:22 47.20843 9.31817 12983 ft 170 kts 263°
2026-04-11 10:22 47.20631 9.30111 12982 ft 165 kts 263°
2026-04-11 10:22 47.20429 9.28475 12978 ft 165 kts 263°
2026-04-11 10:22 47.20234 9.26843 13015 ft 158 kts 263°
2026-04-11 10:23 47.20020 9.25214 12998 ft 166 kts 263°
2026-04-11 10:23 47.19779 9.23525 12993 ft 170 kts 262°
2026-04-11 10:23 47.19552 9.21801 12994 ft 173 kts 263°
2026-04-11 10:23 47.19321 9.20061 12991 ft 173 kts 262°
2026-04-11 10:24 47.19084 9.18327 12989 ft 173 kts 262°
2026-04-11 10:24 47.18845 9.16600 12984 ft 171 kts 262°
2026-04-11 10:24 47.18615 9.14910 12993 ft 170 kts 262°
2026-04-11 10:24 47.18386 9.13204 12978 ft 169 kts 262°
2026-04-11 10:25 47.18178 9.11520 13010 ft 167 kts 263°
2026-04-11 10:25 47.17972 9.09816 12975 ft 171 kts 262°
2026-04-11 10:25 47.17759 9.08085 12981 ft 173 kts 262°
2026-04-11 10:25 47.17536 9.06343 12980 ft 174 kts 262°
2026-04-11 10:26 47.17307 9.04597 12983 ft 173 kts 262°
2026-04-11 10:26 47.17076 9.02863 12983 ft 173 kts 261°
2026-04-11 10:26 47.16844 9.01133 12984 ft 172 kts 261°
2026-04-11 10:26 47.16610 8.99402 12983 ft 172 kts 261°
2026-04-11 10:27 47.16375 8.97673 12981 ft 172 kts 261°
2026-04-11 10:27 47.16140 8.95960 12981 ft 172 kts 261°
2026-04-11 10:27 47.15903 8.94236 12985 ft 172 kts 261°
2026-04-11 10:27 47.15666 8.92506 12986 ft 173 kts 261°
2026-04-11 10:28 47.15433 8.90767 12982 ft 173 kts 262°
2026-04-11 10:28 47.15232 8.89021 12977 ft 173 kts 270°
2026-04-11 10:28 47.15265 8.87259 12982 ft 173 kts 270°
2026-04-11 10:28 47.15181 8.85495 12984 ft 173 kts 266°
2026-04-11 10:29 47.15025 8.83738 12988 ft 174 kts 264°
2026-04-11 10:29 47.14858 8.82002 12987 ft 174 kts 264°
2026-04-11 10:29 47.14691 8.80241 12985 ft 173 kts 264°
2026-04-11 10:29 47.14525 8.78481 12984 ft 173 kts 264°
2026-04-11 10:30 47.14358 8.76730 12983 ft 172 kts 264°
2026-04-11 10:30 47.14193 8.74981 12985 ft 172 kts 264°
2026-04-11 10:30 47.14027 8.73247 12983 ft 172 kts 264°
2026-04-11 10:30 47.13865 8.71526 12985 ft 172 kts 264°
2026-04-11 10:31 47.13698 8.69764 12990 ft 172 kts 264°
2026-04-11 10:31 47.13532 8.68042 12989 ft 173 kts 264°
2026-04-11 10:31 47.13367 8.66299 12992 ft 171 kts 264°
2026-04-11 10:31 47.13202 8.64557 12991 ft 173 kts 264°
2026-04-11 10:32 47.13031 8.62796 12991 ft 173 kts 264°
2026-04-11 10:32 47.12863 8.61056 12989 ft 173 kts 264°
2026-04-11 10:32 47.12695 8.59310 12990 ft 172 kts 264°
2026-04-11 10:32 47.12526 8.57567 12993 ft 172 kts 264°
2026-04-11 10:33 47.12361 8.55824 12990 ft 172 kts 264°
2026-04-11 10:33 47.12194 8.54087 12990 ft 172 kts 264°
2026-04-11 10:33 47.12025 8.52350 12992 ft 172 kts 264°
2026-04-11 10:33 47.11855 8.50606 12999 ft 173 kts 264°
2026-04-11 10:34 47.11688 8.48884 12988 ft 173 kts 264°
2026-04-11 10:34 47.11515 8.47088 12753 ft 182 kts 264°
2026-04-11 10:34 47.11334 8.45213 12500 ft 188 kts 264°
2026-04-11 10:34 47.11145 8.43292 12243 ft 191 kts 263°
2026-04-11 10:35 47.10955 8.41354 11993 ft 191 kts 263°
2026-04-11 10:35 47.10766 8.39424 11741 ft 191 kts 263°
2026-04-11 10:35 47.10575 8.37496 11491 ft 190 kts 263°
2026-04-11 10:35 47.10387 8.35581 11242 ft 189 kts 263°
2026-04-11 10:36 47.10201 8.33674 10996 ft 188 kts 263°
2026-04-11 10:36 47.10018 8.31797 10755 ft 188 kts 263°
2026-04-11 10:36 47.09825 8.29876 10510 ft 188 kts 262°
2026-04-11 10:36 47.09699 8.28620 10350 ft 187 kts 262°
2026-04-11 10:37 47.09453 8.26127 10036 ft 186 kts 262°
2026-04-11 10:37 47.09266 8.24236 9797 ft 186 kts 262°
2026-04-11 10:37 47.09142 8.22993 9610 ft 186 kts 262°
2026-04-11 10:37 47.08956 8.21129 9343 ft 183 kts 261°
2026-04-11 10:38 47.08715 8.18710 9003 ft 179 kts 261°
2026-04-11 10:38 47.08590 8.17494 8824 ft 177 kts 261°
2026-04-11 10:38 47.08235 8.13919 8317 ft 177 kts 260°
2026-04-11 10:39 47.08057 8.12155 8076 ft 176 kts 261°
2026-04-11 10:39 47.07884 8.10403 7992 ft 168 kts 261°
2026-04-11 10:39 47.07716 8.08750 7995 ft 160 kts 260°
2026-04-11 10:39 47.07553 8.07154 7988 ft 156 kts 260°
2026-04-11 10:40 47.07396 8.05589 7984 ft 154 kts 261°
2026-04-11 10:40 47.07258 8.04040 7983 ft 150 kts 265°
2026-04-11 10:40 47.07388 8.02511 7988 ft 154 kts 283°
2026-04-11 10:40 47.07873 8.01079 7984 ft 160 kts 301°
2026-04-11 10:41 47.08690 7.99935 7983 ft 166 kts 320°
2026-04-11 10:41 47.09629 7.98981 7986 ft 166 kts 320°
2026-04-11 10:41 47.10557 7.98038 7987 ft 167 kts 320°
2026-04-11 10:41 47.11510 7.97066 7987 ft 166 kts 319°
2026-04-11 10:42 47.12449 7.96099 7951 ft 166 kts 319°
2026-04-11 10:42 47.13441 7.95081 7614 ft 180 kts 319°
2026-04-11 10:42 47.14490 7.94012 7302 ft 187 kts 319°
2026-04-11 10:42 47.15568 7.92910 6973 ft 190 kts 319°
2026-04-11 10:43 47.17757 7.90676 6346 ft 190 kts 318°
2026-04-11 10:43 47.18811 7.89586 6015 ft 183 kts 318°
2026-04-11 10:43 47.19816 7.88575 5979 ft 166 kts 318°
2026-04-11 10:44 47.20739 7.87645 5977 ft 156 kts 317°
2026-04-11 10:44 47.21621 7.86743 5973 ft 153 kts 317°
2026-04-11 10:44 47.22491 7.85857 5973 ft 151 kts 317°
2026-04-11 10:44 47.23351 7.84976 5971 ft 149 kts 315°
2026-04-11 10:45 47.24021 7.83885 5973 ft 141 kts 295°
2026-04-11 10:45 47.24383 7.82576 5963 ft 136 kts 277°
2026-04-11 10:45 47.24431 7.81216 5970 ft 132 kts 260°
2026-04-11 10:45 47.24246 7.79925 5974 ft 131 kts 255°
2026-04-11 10:46 47.24046 7.78621 5956 ft 130 kts 255°
2026-04-11 10:46 47.23844 7.77322 5957 ft 131 kts 255°
2026-04-11 10:46 47.23640 7.76016 5955 ft 131 kts 255°
2026-04-11 10:46 47.23460 7.74700 5956 ft 131 kts 258°
2026-04-11 10:47 47.23295 7.73376 5952 ft 132 kts 257°
2026-04-11 10:47 47.23125 7.72056 5954 ft 132 kts 257°
2026-04-11 10:47 47.22956 7.70702 5822 ft 141 kts 257°
2026-04-11 10:47 47.22770 7.69223 5549 ft 151 kts 257°
2026-04-11 10:48 47.22571 7.67668 5278 ft 158 kts 257°
2026-04-11 10:48 47.22366 7.66093 5024 ft 150 kts 257°
2026-04-11 10:48 47.22180 7.64641 4749 ft 139 kts 257°
2026-04-11 10:48 47.22017 7.63338 4457 ft 121 kts 257°
2026-04-11 10:49 47.21871 7.62162 4180 ft 115 kts 257°
2026-04-11 10:49 47.21727 7.61000 3903 ft 115 kts 257°
2026-04-11 10:49 47.21580 7.59834 3633 ft 116 kts 257°
2026-04-11 10:49 47.21427 7.58677 3377 ft 114 kts 257°
2026-04-11 10:50 47.21282 7.57599 3098 ft 104 kts 257°
2026-04-11 10:50 47.21147 7.56602 2958 ft 90 kts 257°
2026-04-11 10:50 47.21035 7.55739 2950 ft 83 kts 257°
2026-04-11 10:50 47.20932 7.54933 2951 ft 79 kts 257°
2026-04-11 10:51 47.20823 7.54143 2953 ft 81 kts 257°
2026-04-11 10:51 47.20708 7.53299 2964 ft 88 kts 257°
2026-04-11 10:51 47.20581 7.52363 2827 ft 98 kts 257°
2026-04-11 10:51 47.20433 7.51298 2486 ft 111 kts 257°
2026-04-11 10:52 47.20280 7.50267 2458 ft 97 kts 257°
2026-04-11 10:52 47.20138 7.49313 2489 ft 94 kts 257°
2026-04-11 10:52 47.19999 7.48375 2488 ft 94 kts 257°
2026-04-11 10:52 47.19859 7.47441 2491 ft 93 kts 255°
2026-04-11 10:53 47.19614 7.46551 2450 ft 97 kts 247°
2026-04-11 10:53 47.19347 7.45579 2160 ft 106 kts 247°
2026-04-11 10:53 47.19045 7.44618 1822 ft 101 kts 242°
2026-04-11 10:53 47.18773 7.43747 1592 ft 86 kts 245°
2026-04-11 10:54 47.18545 7.42991 1464 ft 79 kts 244°
2026-04-11 10:54 47.18330 7.42279 1411 ft 72 kts 244°
2026-04-11 10:54 47.18174 7.41769 1411 ft 43 kts 245°
2026-04-11 10:54 47.18074 7.41441 1408 ft 29 kts 245°
2026-04-11 10:55 47.18028 7.41293 1410 ft 0 kts 244°
2026-04-11 10:55 47.18019 7.41266 1406 ft 7 kts 243°
2026-04-11 10:55 47.17997 7.41193 1408 ft 8 kts 244°
2026-04-11 10:55 47.18025 7.41151 1406 ft 7 kts 336°
2026-04-11 10:56 47.18073 7.41119 1408 ft 8 kts 335°
2026-04-11 10:56 47.18107 7.41139 1408 ft 6 kts 73°
2026-04-11 10:56 47.18126 7.41157 1412 ft 1 kts 317°
2026-04-11 10:56 47.18133 7.41150 1412 ft 3 kts 326°
2026-04-11 10:57 47.18152 7.41172 1417 ft 8 kts 70°
2026-04-11 10:57 47.18155 7.41181 1417 ft 0 kts 66°